Weather History for Alpena, MI

Change the Weather History Date:

Thursday, March 1, 2012

  Actual Average Record
Temperature  
Mean Temperature 31 °F 23 °F  
Max Temperature 33 °F 33 °F 48 °F (1983)
Min Temperature 28 °F 14 °F -23 °F (1962)
Degree Days  
Heating Degree Days 34 42  
Month to date heating degree days 34 42  
Since 1 July heating degree days 4999 5774  
Moisture  
Dew Point 28 °F    
Average Humidity 89    
Maximum Humidity 100    
Minimum Humidity 78    
Precipitation  
Precipitation 0.16 in 0.06 in 1.19 in (1972)
Month to date precipitation 0.16 0.06  
Year to date precipitation 3.64 3.04  
Snow  
Snow 1.60 in 0.50 in 6.20 in (1926)
Month to date snowfall 1.6 0.5  
Since 1 July snowfall 47.7 66.6  
Snow Depth 13.00 in    
Sea Level Pressure  
Sea Level Pressure 29.68 in    
Wind  
Wind Speed 6 mph (NE)    
Max Wind Speed 16 mph    
Max Gust Speed 20 mph    
Visibility 6 miles    
Events Snow    
T = Trace of Precipitation, MM = Missing Value Source: NWS Daily Summary

Daily Weather History Graph

Daily Weather History Graph

Search for Another Location

Airport:

Trip Planner

Search our weather history database for the weather conditions in past years. The results will help you decide how hot, cold, wet, or windy it might be!

Date:

Astronomy

Mar. 01, 2012 Rise Set
Actual Time 7:11 AM EST 6:22 PM EST
Civil Twilight 6:41 AM EST 6:51 PM EST
Nautical Twilight 6:07 AM EST 7:25 PM EST
Astronomical Twilight 5:33 AM EST 8:00 PM EST
Moon 11:28 AM EST (3/1) 2:21 AM EST (3/1)
Length of Visible Light 12h 09m
Length of Day
11h 11m
First Quarter, 56% of the Moon is Illuminated
Mar 1
First Quarter
Mar 8
Full
Mar 14
Last Quarter
Mar 22
New
Mar 30
First Quarter

Hourly Weather History & Observations

Time (EST) Temp. Windchill Dew Point Humidity Pressure Visibility Wind Dir Wind Speed Gust Speed Precip Events Conditions
12:11 AM 32.0 °F 24.2 °F 30.2 °F 93% 29.48 in 2.5 mi East 9.2 mph - 0.02 in Snow Light Snow
12:36 AM 32.0 °F 25.6 °F 30.2 °F 93% 29.48 in 4.0 mi East 6.9 mph - 0.03 in Snow Light Snow
12:54 AM 32.0 °F 24.2 °F 30.9 °F 96% 29.51 in 6.0 mi East 9.2 mph - 0.03 in Snow Light Snow
1:21 AM 32.0 °F 24.8 °F 30.2 °F 93% 29.48 in 2.5 mi East 8.1 mph - 0.01 in Snow Light Snow
1:46 AM 32.0 °F 24.8 °F 32.0 °F 100% 29.49 in 1.5 mi East 8.1 mph - 0.03 in Snow Light Snow
1:54 AM 32.0 °F 25.6 °F 32.0 °F 100% 29.52 in 1.5 mi ENE 6.9 mph - 0.04 in Snow Light Snow
2:54 AM 32.0 °F 24.8 °F 32.0 °F 100% 29.52 in 1.5 mi NE 8.1 mph - 0.04 in Snow Light Snow
3:54 AM 32.0 °F 23.6 °F 30.9 °F 96% 29.53 in 2.0 mi NE 10.4 mph - 0.04 in Snow Light Snow
4:01 AM 32.0 °F 23.6 °F 30.2 °F 93% 29.51 in 2.0 mi NE 10.4 mph - 0.00 in Snow Light Snow
4:41 AM 30.2 °F 21.3 °F 30.2 °F 100% 29.53 in 1.5 mi NNE 10.4 mph - 0.00 in Snow Light Snow
4:54 AM 30.9 °F 21.2 °F 30.0 °F 96% 29.55 in 2.0 mi NNE 12.7 mph - 0.00 in Snow Light Snow
5:16 AM 30.2 °F 20.2 °F 30.2 °F 100% 29.54 in 1.8 mi NNE 12.7 mph - 0.00 in Snow Light Snow
5:23 AM 30.2 °F 21.3 °F 30.2 °F 100% 29.55 in 2.0 mi NNE 10.4 mph - 0.01 in Snow Light Snow
5:45 AM 30.2 °F 20.2 °F 30.2 °F 100% 29.56 in 1.5 mi NNE 12.7 mph - 0.01 in Snow Light Snow
5:54 AM 30.0 °F 19.1 °F 28.9 °F 96% 29.59 in 1.2 mi NNE 15.0 mph - 0.01 in Snow Light Snow
6:54 AM 28.9 °F 19.2 °F 27.0 °F 92% 29.62 in 2.0 mi North 11.5 mph - 0.01 in Snow Light Snow
7:17 AM 28.4 °F 18.0 °F 26.6 °F 93% 29.60 in 3.0 mi North 12.7 mph - 0.00 in Snow Light Snow
7:46 AM 28.4 °F 19.1 °F 26.6 °F 93% 29.61 in 5.0 mi North 10.4 mph - 0.00 in   Overcast
7:54 AM 28.0 °F 18.1 °F 26.1 °F 92% 29.65 in 7.0 mi North 11.5 mph - 0.00 in   Overcast
8:01 AM 28.4 °F 19.1 °F 26.6 °F 93% 29.63 in 8.0 mi North 10.4 mph - N/A   Overcast
8:54 AM 28.0 °F 20.0 °F 25.0 °F 88% 29.70 in 10.0 mi North 8.1 mph - N/A   Overcast
9:34 AM 28.4 °F 19.1 °F 24.8 °F 86% 29.67 in 10.0 mi North 10.4 mph - N/A   Overcast
9:54 AM 28.0 °F 19.3 °F 25.0 °F 88% 29.71 in 10.0 mi North 9.2 mph - N/A   Overcast
10:49 AM 28.4 °F 19.7 °F 24.8 °F 86% 29.71 in 10.0 mi NNW 9.2 mph - N/A   Overcast
10:54 AM 28.9 °F 22.8 °F 25.0 °F 85% 29.74 in 10.0 mi North 5.8 mph - N/A   Overcast
11:12 AM 28.4 °F 20.4 °F 24.8 °F 86% 29.72 in 10.0 mi NNW 8.1 mph - N/A   Overcast
11:54 AM 28.9 °F 22.8 °F 25.0 °F 85% 29.76 in 10.0 mi North 5.8 mph - N/A   Overcast
12:54 PM 30.0 °F 23.2 °F 25.0 °F 82% 29.76 in 10.0 mi North 6.9 mph - N/A   Overcast
1:54 PM 30.0 °F 26.5 °F 25.0 °F 82% 29.77 in 10.0 mi North 3.5 mph - N/A   Overcast
2:54 PM 30.9 °F 25.2 °F 27.0 °F 85% 29.81 in 10.0 mi West 5.8 mph - N/A   Overcast
3:54 PM 30.9 °F - 27.0 °F 85% 29.83 in 10.0 mi Calm Calm - N/A   Overcast
4:54 PM 30.9 °F - 28.0 °F 89% 29.82 in 10.0 mi Calm Calm - N/A   Overcast
5:54 PM 30.9 °F - 28.0 °F 89% 29.83 in 10.0 mi Calm Calm - N/A   Overcast
6:54 PM 30.0 °F - 28.0 °F 92% 29.87 in 10.0 mi Calm Calm - N/A   Overcast
7:37 PM 30.2 °F - 28.4 °F 93% 29.85 in 8.0 mi Calm Calm - N/A   Overcast
7:52 PM 30.2 °F - 28.4 °F 93% 29.86 in 8.0 mi Calm Calm - N/A   Overcast
7:54 PM 30.0 °F - 28.9 °F 96% 29.89 in 8.0 mi Calm Calm - N/A   Overcast
8:54 PM 30.0 °F 26.5 °F 28.0 °F 92% 29.88 in 9.0 mi SSE 3.5 mph - N/A   Overcast
9:54 PM 30.0 °F 24.1 °F 28.0 °F 92% 29.87 in 9.0 mi SE 5.8 mph - N/A   Overcast
10:44 PM 30.2 °F 25.4 °F 28.4 °F 93% 29.83 in 8.0 mi SE 4.6 mph - N/A   Overcast
10:54 PM 30.0 °F 25.2 °F 28.0 °F 92% 29.86 in 8.0 mi SE 4.6 mph - N/A   Overcast
11:51 PM 30.2 °F 24.3 °F 28.4 °F 93% 29.84 in 9.0 mi SSE 5.8 mph - 0.00 in   Overcast
11:54 PM 30.0 °F 24.1 °F 28.0 °F 92% 29.87 in 9.0 mi SSE 5.8 mph - 0.00 in   Overcast